This demonstration page uses our WeatherBlox Daily Observations layout. Learn more.

Left ArrowRight Arrow

39.08367, -84.50855

Hourly Observations for August 6, 2017

Temp ( °F °C ) Dew Point ( °F °C ) Humidity (%) Winds ( mph kmh ) Pressure ( in mb ) Visibility ( mi km ) Precip ( " mm )
12:53 am 00:53 Clear 63 17.2 61 16.1 93 93 N N/A 30.07 1018 10 16 N/A
1:53 am 01:53 Clear 63 17.2 61 16.1 93 93 N N/A 30.06 1018 10 16 N/A
2:53 am 02:53 Clear 63 17.2 62 16.7 97 97 N N/A 30.08 1019 10 16 N/A
3:53 am 03:53 Clear 63 17.2 62 16.7 97 97 N N/A 30.07 1018 10 16 N/A
4:53 am 04:53 Clear 63 17.2 62 16.7 97 97 N N/A 30.06 1018 10 16 N/A
5:53 am 05:53 Cloudy 63 17.2 62 16.7 97 97 N N/A 30.08 1019 10 16 N/A
6:53 am 06:53 Cloudy 64 17.8 62 16.7 93 93 N N/A 30.08 1019 10 16 N/A
7:53 am 07:53 Cloudy 64 17.8 63 17.2 96 96 N N/A 30.09 1019 10 16 N/A
8:53 am 08:53 Mostly Cloudy 65 18.3 63 17.2 93 93 N N/A 30.09 1019 10 16 N/A
9:53 am 09:53 Cloudy 67 19.4 63 17.2 87 87 N N/A 30.09 1019 10 16 N/A
10:53 am 10:53 Mostly Cloudy 69 20.6 62 16.7 78 78 N N/A 30.10 1019 10 16 N/A
11:53 am 11:53 Cloudy with Light Rain 69 20.6 62 16.7 78 78 N N/A 30.11 1020 10 16 N/A
12:53 pm 12:53 Cloudy with Light Rain 70 21.1 65 18.3 84 84 NE 3 6 30.10 1019 10 16 0.01 0.25
1:53 pm 13:53 Sunny 72 22.2 61 16.1 68 68 ESE 6 9 30.09 1019 10 16 N/A
2:53 pm 14:53 Mostly Sunny 73 22.8 59 15 62 62 ENE 6 9 30.06 1018 10 16 N/A
3:53 pm 15:53 Mostly Sunny 72 22.2 59 15 64 64 E 3 6 30.06 1018 10 16 N/A
4:53 pm 16:53 Cloudy 72 22.2 61 16.1 68 68 E 3 6 30.06 1018 10 16 N/A
5:53 pm 17:53 Cloudy with Light Rain 70 21.1 64 17.8 82 82 N N/A 30.06 1018 10 16 0.01 0.25
6:53 pm 18:53 Cloudy with Light Rain 69 20.6 66 18.9 90 90 N N/A 30.04 1017 10 16 0.01 0.25
7:53 pm 19:53 Mostly Cloudy 67 19.4 65 18.3 93 93 SSE 5 7 30.04 1017 10 16 N/A
8:53 pm 20:53 Cloudy with Light Rain 67 19.4 64 17.8 91 91 SE 5 7 30.02 1017 10 16 N/A
9:53 pm 21:53 Cloudy with Light Rain 65 18.3 65 18.3 100 100 N N/A 30.05 1018 6 10 0.03 0.76
10:53 pm 22:53 Mostly Cloudy with Light Rain 65 18.3 65 18.3 100 100 NNE 3 6 30.03 1017 7 11 0.06 1.52
11:53 pm 23:53 Cloudy with Light Rain 65 18.3 65 18.3 100 100 NNE 3 6 30.03 1017 10 16 N/A

Powered by AerisWeather